93

www.moto.it

MXGP. Cairoli e Jonass vincono Gara-1 in Argentina

93
...

Attenzione: la versione di Internet Explorer che stai utilizzando non permette una corretta visualizzazione.
Moto.it è ottimizzato per Internet Explorer 9 o superiore, oppure puoi utilizzare altri browser come Chrome, Firefox o Safari.

mostra aiuto invia feedback

MXGP. Cairoli e Jonass vincono Gara-1 in Argentina

Cairoli apre questa stagione con la vittoria in Gara-1 e tiene alle sue spalle Herlings e Desalle. Febvre si classifica quarto seguito da Van Horebeek e Paulin. 7° Seewer. Monticelli e Lupino chiudono rispettivamente al diciottesimo e diciannovesimo posto. 

Per la MX2 Jonass vince la prima manche davanti a Lawrence e Olsen. Quarta piazza per Watson che anticipa Jacobi e Mewse. 8° posto per Cervellin mentre Bernardini chiude quindicesimo.

CLASSIFICHE

MXGP - Race 1 - Classification

Pos Nr Rider Nat. Fed. Bike Time laps Diff. First Diff. Prev. Bestlaptime in lap Speed
1 222 Cairoli, Antonio ITA FMI KTM 34:23.907 19 0:00.000 0:00.000 1:42.787 9 54.2
2 84 Herlings, Jeffrey NED KNMV KTM 34:24.982 19 0:01.075 0:01.075 1:42.433 10 54.4
3 25 Desalle, Clement BEL FMB Kawasaki 34:54.008 19 0:30.101 0:29.026 1:43.069 3 54.1
4 461 Febvre, Romain FRA FFM Yamaha 34:55.988 19 0:32.081 0:01.980 1:42.933 7 54.2
5 89 Van Horebeek, Jeremy BEL FMB Yamaha 34:58.398 19 0:34.491 0:02.410 1:43.529 4 53.8
6 21 Paulin, Gautier FRA MCM Husqvarna 35:03.245 19 0:39.338 0:04.847 1:43.866 7 53.7
7 91 Seewer, Jeremy SUI FMS Yamaha 35:08.693 19 0:44.786 0:05.448 1:43.888 3 53.7
8 33 Lieber, Julien BEL FMB Kawasaki 35:15.884 19 0:51.977 0:07.191 1:44.260 1 53.5
9 100 Searle, Tommy GBR ACU Kawasaki 35:19.445 19 0:55.538 0:03.561 1:44.613 4 53.3
10 259 Coldenhoff, Glenn NED KNMV KTM 35:20.155 19 0:56.248 0:00.710 1:44.176 4 53.5
11 24 Simpson, Shaun GBR ACU Yamaha 35:22.343 19 0:58.436 0:02.188 1:44.432 2 53.4
12 99 Anstie, Max GBR ACU Husqvarna 35:28.472 19 1:04.565 0:06.129 1:44.687 4 53.3
13 12 Nagl, Maximilian GER DMSB TM 35:29.734 19 1:05.827 0:01.262 1:45.070 3 53.1
14 777 Bobryshev, Evgeny RUS MFR Suzuki 35:51.668 19 1:27.761 0:21.934 1:44.778 5 53.2
15 27 Jasikonis, Arminas LTU LMSF Honda 35:54.118 19 1:30.211 0:02.450 1:45.778 5 52.7
16 55 Irwin, Graeme GBR MCUI KTM 35:54.871 19 1:30.964 0:00.753 1:45.746 3 52.7
17 22 Strijbos, Kevin BEL FMB KTM 35:56.807 19 1:32.900 0:01.936 1:45.831 3 52.7
18 128 Monticelli, Ivo ITA FMI Yamaha 35:58.291 19 1:34.384 0:01.484 1:45.585 4 52.8
19 77 Lupino, Alessandro ITA FMI Kawasaki 36:16.207 19 1:52.300 0:17.916 1:46.298 5 52.4
20 152 Petrov, Petar BUL BMF Honda 34:30.545 18 1 lap 1 lap 1:47.031 2 52.1

MX2 - Grand Prix Race 1 - Classification

Pos Nr Rider Nat. Fed. Bike Time laps Diff. First Diff. Prev. Bestlaptime in lap Speed
1 1 Jonass, Pauls LAT LAMSF KTM 34:44.373 19 0:00.000 0:00.000 1:43.195 7 54
2 96 Lawrence, Hunter AUS MA Honda 34:46.366 19 0:01.993 0:01.993 1:42.777 3 54.2
3 19 Olsen, Thomas Kjer DEN DMU Husqvarna 34:56.882 19 0:12.509 0:10.516 1:43.335 5 53.9
4 919 Watson, Ben GBR ACU Yamaha 35:05.913 19 0:21.540 0:09.031 1:43.683 9 53.8
5 29 Jacobi, Henry GER DMSB Husqvarna 35:24.059 19 0:39.686 0:18.146 1:44.618 7 53.3
6 426 Mewse, Conrad GBR ACU KTM 35:24.557 19 0:40.184 0:00.498 1:44.070 5 53.6
7 14 Beaton, Jed AUS MA Kawasaki 35:26.264 19 0:41.891 0:01.707 1:44.502 5 53.3
8 747 Cervellin, Michele ITA FMI Honda 35:27.611 19 0:43.238 0:01.347 1:45.380 7 52.9
9 18 Brylyakov, Vsevolod RUS MFR Yamaha 35:29.324 19 0:44.951 0:01.713 1:44.489 7 53.4
10 64 Covington, Thomas USA MUL Husqvarna 35:37.098 19 0:52.725 0:07.774 1:45.424 11 52.9
11 66 Larranaga Olano, Iker ESP RFME Husqvarna 35:42.773 19 0:58.400 0:05.675 1:45.150 7 53
12 193 Geerts, Jago BEL FMB Yamaha 35:47.668 19 1:03.295 0:04.895 1:46.222 11 52.5
13 811 Sterry, Adam GBR ACU Kawasaki 35:48.848 19 1:04.475 0:01.180 1:46.068 5 52.6
14 98 Vaessen, Bas NED KNMV Honda 35:49.665 19 1:05.292 0:00.817 1:45.402 6 52.9
15 321 Bernardini, Samuele ITA FMI TM 36:00.073 19 1:15.700 0:10.408 1:45.726 2 52.7
16 61 Prado, Jorge ESP RFME KTM 36:03.320 19 1:18.947 0:03.247 1:44.999 6 53.1
17 118 Rubini, Stephen FRA FFM KTM 36:04.818 19 1:20.445 0:01.498 1:46.056 9 52.6
18 10 Vlaanderen, Calvin RSA KNMV Honda 36:05.408 19 1:21.035 0:00.590 1:45.316 2 52.9
19 46 Pootjes, Davy NED KNMV KTM 36:12.710 19 1:28.337 0:07.302 1:45.887 2 52.6
20 172 Van doninck, Brent BEL FMB Husqvarna 36:17.237 19 1:32.864 0:04.527 1:46.993 7 52.1